map of MDH home
MDH - Airport
Location
City:  Carbondale/Murphysboro, Illinois, United States
Name:Southern Illinois Airport
ICAO:KMDH
IATA:MDH
FAA LID:MDH

Details
Type:Airport (Part 139 Class IV)
Use:Public/Civil
Latitude:3746'41"N (37.778083)
Longitude:8915'07"W (-89.252027)
Datum:WGS 1984
Elevation:411 ft (125 m)
Variation:2.24W (WMM2015 magnetic declination)
-0.09 annual change
Runways:3
Longest:6506 × 100 ft (1983 × 30.5 m), paved

Time
Time Zone:UTC-6 (DST-5)
Local Time:

Weather
METAR:KMDH 110052Z 00000KT 10SM CLR M04/M07 A3032 RMK AO2 SLP275 T10391067

Related Locations
Nearby:
Farthest:YAUG: 11060 mi / 17799 km
Augusta [Augusta Airport], WA, AU

Find:

   beyond  
but within

Other Information
Maps:
NOTAMs:
Links:
Sources:

  
  • flag of United States
  • flag of Illinois
  

Airport Diagram

Airport diagram for MDH

Airport diagram PDF

Sectional Chart

Flight Planning
at skyvector.com

Satellite Image

Google Maps Satellite view

 

Copyright © 2004-2018 Karl L. Swartz. All rights reserved.
The Great Circle Mapper name and logo are trademarks of the Great Circle Mapper.
All other trademarks mentioned herein belong to their respective owners.
Please see credits for attibutions and further copyright information.

  Follow gcmap on Facebook Follow gcmap on Twitter Follow gcmap on Google+ GCmap on LinkedIn

hCard Microformat

Geo Microformat